Regional Weather Roundup
Issued by NWS

Home | Current Version | Previous Version | Text Only | Print | Product List | Glossary Off
Versions: 1 2 3 4 5 6 7 8 9 10 11 12 13 14 15 16 17 18 19 20 21 22 23 24 25 26 27 28 29 30 31 32 33 34 35 36 37 38 39 40 41 42 43 44 45 46 47 48 49 50

000
ASUS43 KLMK 030410
RWRKY
KENTUCKY REGIONAL WEATHER ROUNDUP
NATIONAL WEATHER SERVICE LOUISVILLE KY
1100 PM EST MON MAR 02 2015

NOTE "FAIR" INDICATES FEW OR NO CLOUDS BELOW 12,000 FEET
WITH NO SIGNIFICANT WEATHER AND/OR OBSTRUCTIONS TO VISIBILITY.

KYZ001>023-026-027-061>063-070>075-030500-
WESTERN AND SOUTH CENTRAL KENTUCKY

CITY           SKY/WX    TMP DP  RH WIND       PRES   REMARKS
PADUCAH        CLOUDY    36  23  59 E8        30.25F WCI  30
HENDERSON      FAIR      30  21  69 E8        30.27F WCI  23
OWENSBORO      FAIR      34  21  59 E10       30.28F WCI  26
HOPKINSVILLE   CLOUDY    38  26  62 E7        30.24F WCI  33
BOWLING GREEN  MOCLDY    37  23  56 E9        30.29F WCI  30
GLASGOW        FAIR      33  24  67 E6        30.29F WCI  28
$$

KYZ024-025-028>034-038-045-046-053-030500-
NORTH CENTRAL KENTUCKY

CITY           SKY/WX    TMP DP  RH WIND       PRES   REMARKS
LOUISVILLE/SDF FAIR      32  19  58 E3        30.33F
LOUISVILLE/LOU FAIR      33  18  53 CALM      30.34F
FORT KNOX      FAIR      31  19  63 E7        30.29F WCI  24
$$

KYZ035>037-039>044-047>052-055>060-089>105-030500-
NORTHEAST KENTUCKY

CITY           SKY/WX    TMP DP  RH WIND       PRES   REMARKS
LEXINGTON      FAIR      29  18  63 E10       30.32F WCI  20
COVINGTON      CLOUDY    28  17  63 E7        30.35S WCI  21
FRANKFORT      FAIR      29  17  61 E8        30.33S WCI  21
$$

KYZ054-064>069-076>088-106>120-030500-
SOUTHEAST KENTUCKY

CITY           SKY/WX    TMP DP  RH WIND       PRES   REMARKS
JACKSON        FAIR      32  18  56 VRB5      30.31F WCI  27
LONDON         FAIR      36  17  46 E3        30.29F
SOMERSET       FAIR      32  21  64 CALM      30.33S
MIDDLESBORO    FAIR      32  31  97 CALM      30.31S
MONTICELLO     FAIR      34  27  76 CALM      30.33F
$$



USA.gov is the U.S. government's official web portal to all federal, state and local government web resources and services.